User: anonymous   Login
Location: Unspecified
(0.0000°N, 0.0000°E)
Time: 10:10:21
(UTC+00:00)
Language:

USA 223 - Orbit

View from above orbital plane
View from above orbital plane
View from above satellite
View from above satellite

Ground track
Ground track

The orbit data is extracted from the following two-line orbital elements,

1 37232U 10063A   20029.76030174 0.00000000  00000-0  00000-0 0    01
2 37232   3.9066 138.2872 0043773 155.7461 204.4759  1.00270000    08
Epoch (UTC): 29 January 2020 18:14:50
Eccentricity: 0.0043773
inclination: 3.9066°
perigee height: 35602 km
apogee height: 35971 km
right ascension of ascending node: 138.2872°
argument of perigee: 155.7461°
revolutions per day: 1.00270000
mean anomaly at epoch: 204.4759°
orbit number at epoch: 0

The dashed part of the orbit path shows where the satellite is in the earth's shadow,  

DLR